This demonstration page uses our WeatherBlox Daily Observations layout. Learn more.

Left ArrowRight Arrow

34.16533, -84.80231

Hourly Observations for October 17, 2015

Temp ( °F °C ) Dew Point ( °F °C ) Humidity (%) Winds ( mph kmh ) Pressure ( in mb ) Visibility ( mi km ) Precip ( " mm )
12:53 am 00:53 Clear 44 6.7 40 4.4 85 85 Calm 30.22 1024 10 16 0.00 0.00
1:53 am 01:53 Clear 41 5 39 3.9 93 93 Calm 30.22 1024 10 16 0.00 0.00
2:53 am 02:53 Clear 40 4.4 38 3.3 93 93 Calm 30.22 1024 10 16 0.00 0.00
3:53 am 03:53 Clear 40 4.4 39 3.9 97 97 Calm 30.22 1024 10 16 0.00 0.00
4:53 am 04:53 Clear 39 3.9 37 2.8 93 93 Calm 30.22 1024 10 16 0.00 0.00
5:53 am 05:53 Clear 39 3.9 37 2.8 93 93 Calm 30.23 1024 10 16 0.00 0.00
6:53 am 06:53 Clear 39 3.9 37 2.8 93 93 Calm 30.25 1024 10 16 0.00 0.00
7:53 am 07:53 Sunny 37 2.8 36 2.2 96 96 Calm 30.27 1025 10 16 0.00 0.00
8:53 am 08:53 Sunny 45 7.2 41 5 86 86 Calm 30.28 1026 10 16 0.00 0.00
9:53 am 09:53 Sunny 50 10 40 4.4 68 68 Calm 30.30 1026 10 16 0.00 0.00
10:53 am 10:53 Sunny 58 14.4 38 3.3 48 48 N 5 7 30.31 1027 10 16 0.00 0.00
11:53 am 11:53 Sunny 62 16.7 34 1.1 35 35 NNW 7 11 30.30 1026 10 16 0.00 0.00
12:53 pm 12:53 Sunny 65 18.3 29 -1.7 26 26 N 10 17 30.28 1025 10 16 0.00 0.00
1:53 pm 13:53 Sunny 66 18.9 26 -3.3 22 22 N 9 15 30.26 1025 10 16 0.00 0.00
2:53 pm 14:53 Sunny 67 19.4 28 -2.2 23 23 N 12 19 30.25 1024 10 16 0.00 0.00
3:53 pm 15:53 Sunny 67 19.4 31 -0.6 26 26 N 8 13 30.24 1024 10 16 0.00 0.00
4:53 pm 16:53 Sunny 66 18.9 30 -1.1 26 26 NNW 7 11 30.23 1024 10 16 0.00 0.00
5:53 pm 17:53 Sunny 63 17.2 29 -1.7 28 28 N 8 13 30.22 1024 10 16 0.00 0.00
6:53 pm 18:53 Sunny 58 14.4 33 0.6 39 39 NNW 3 6 30.23 1024 10 16 0.00 0.00
7:53 pm 19:53 Clear 47 8.3 40 4.4 77 77 Calm 30.26 1025 10 16 0.00 0.00
8:53 pm 20:53 Clear 44 6.7 40 4.4 85 85 Calm 30.27 1025 10 16 0.00 0.00
9:53 pm 21:53 Clear 44 6.7 39 3.9 83 83 Calm 30.28 1026 10 16 0.00 0.00
10:53 pm 22:53 Clear 52 11.1 35 1.7 53 53 N 7 11 30.29 1026 10 16 0.00 0.00
11:53 pm 23:53 Clear 51 10.6 34 1.1 52 52 N 8 13 30.29 1026 10 16 0.00 0.00

Powered by AerisWeather